星链-4138 (STARLINK-4138 )

导读 | 星芒AI

STARLINK-4138 是 SpaceX Starlink 项目中的一颗低轨通信卫星,属于该系列的第 4138 颗发射卫星。它主要用于提供全球范围内的高速互联网服务,特别是在偏远和网络基础设施不足的地区。该卫星运行在约 550 公里的轨道高度,采用先进的通信技术,支持高频段数据传输,并具备自动避障功能以确保太空安全。作为 Starlink 卫星群的一部分,STARLINK-4138 有助于提升全球互联网接入的覆盖范围与服务质量。

基本信息
目录编号:
53535
目录名称:
STARLINK-4138
国际标识:
2022-101J
轨道中心:
EARTH
卫星名称:
星链-4138
卫星全名:
星链-4138 (STARLINK-4138 )
卫星状态:
在轨 (已飞行1220 天)
发射日期:
2022-08-19 UTC
国别 :
美国 (US)
星等 :
--
轨道信息
数据来源 国际轨道数据
星历时间: 2025-12-20T18:31:40+0800
18小时前
查看轨道信息
半长轴: 6917.904km
偏心率: 0.0001439
轨道倾角: 53.218°
近地点辐角 117.698°
升交点赤经 69.891°
平近点角 242.416°
近地点: 538.771km
远地点: 540.763km
周期: 95.438分钟
每日圈数: 15.088323
详细信息
固有亮度:
5
最大亮度:
2.5
卫星平台:
Starlink v1.5
覆盖范围:
全球
运营商:
太空探索技术公司
运营商所在国:
美国
制造商(研发单位):
太空探索技术公司
制造商所在国:
美国
使用方式:
暂无
卫星简介
星链(Starlink)计划是由太空探索技术公司(SpaceX)提出的一个巨型低轨卫星互联网星座项目,计划在2019年至2024年间在太空搭建由约1.2万颗卫星组成的“星链”网络,其中1584颗将部署在地球上空550千米处的近地轨道,并从2020年开始工作。该卫星仍在工作。
2D轨道图
3D轨道图
轨道高度分析图
轨道倾角分析图
轨道综合分析图
查看轨道综合分析图